Date String (YYYY-MM-DD hh:mm:ss) UTC,Instrument flags,Ambient pressure (hPa),Sample flow (lpm),Bypass flow (lpm),Sample temperature (°C),Ambient temperature (°C),ASC tube jacket temperature (°C),LED temperature (°C),Box temperature (°C),Sample RH (%),Span deviation,Mass concentration (μg/m³),Mass concentration (μg/m³),Mass concentration (μg/m³)
DateTimeUTC,F1_M11,P_M11,Q1_M11,Q2_M11,T1_M11,T2_M11,T3_M11,T4_M11,T5_M11,U1_M11,ZSPAN_M11,X0_M11,X2_M11,X1_M11
2022-11-07 07:00:00,,0827.1,5.00,0.00,22.3,20.8,00.0,31.1,24.1,11.9,0000.0,0007.70,0003.11,0002.06
2022-11-07 07:01:00,,0827.0,4.99,0.00,22.2,20.7,00.0,31.1,24.0,11.9,0000.0,0007.67,0003.12,0002.05
2022-11-07 07:02:00,,0827.0,5.00,0.00,22.2,20.7,00.0,31.1,24.0,11.8,0000.0,0008.21,0003.15,0002.05
2022-11-07 07:03:00,,0827.0,5.00,0.00,22.2,20.7,00.0,31.1,24.1,11.9,0000.0,0008.70,0003.14,0002.05
2022-11-07 07:04:00,,0827.0,4.99,0.00,22.2,20.7,00.0,31.1,24.0,11.9,0000.0,0008.67,0003.11,0002.03
2022-11-07 07:05:00,,0826.8,5.01,0.00,22.2,20.7,00.0,31.1,24.0,11.9,0000.0,0008.71,0003.11,0002.03
2022-11-07 07:06:00,,0826.8,5.01,0.00,22.2,20.7,00.0,31.1,24.0,12.0,0000.0,0008.62,0003.08,0002.02
2022-11-07 07:07:00,,0826.8,5.00,0.00,22.2,20.7,00.0,31.1,24.0,12.0,0000.0,0008.53,0003.03,0002.02
2022-11-07 07:08:00,,0826.8,5.00,0.00,22.2,20.7,00.0,31.1,24.0,12.0,0000.0,0008.61,0003.04,0002.01
2022-11-07 07:09:00,,0826.8,5.00,0.00,22.2,20.7,00.0,31.1,24.0,12.0,0000.0,0009.13,0003.05,0002.01
2022-11-07 07:10:00,,0826.8,5.00,0.00,22.2,20.7,00.0,31.1,24.0,12.0,0000.0,0009.06,0002.94,0001.99
2022-11-07 07:11:00,,0826.8,4.99,0.00,22.2,20.7,00.0,31.0,24.0,12.1,0000.0,0009.10,0002.93,0001.97
2022-11-07 07:12:00,,0826.8,5.00,0.00,22.2,20.7,00.0,31.0,24.0,12.1,0000.0,0008.89,0002.92,0001.97
2022-11-07 07:13:00,,0826.8,4.99,0.00,22.2,20.6,00.0,31.0,24.0,12.0,0000.0,0007.96,0002.86,0001.97
2022-11-07 07:14:00,,0826.8,5.00,0.00,22.1,20.6,00.0,31.0,24.0,12.0,0000.0,0006.98,0002.85,0001.96
2022-11-07 07:15:00,,0826.8,5.00,0.00,22.1,20.6,00.0,31.0,24.0,12.1,0000.0,0007.60,0002.91,0001.98
2022-11-07 07:16:00,,0826.8,5.01,0.00,22.1,20.6,00.0,31.0,24.0,12.1,0000.0,0008.13,0002.91,0001.98
2022-11-07 07:17:00,,0826.8,5.01,0.00,22.1,20.6,00.0,31.0,23.9,12.1,0000.0,0008.20,0002.91,0001.98
2022-11-07 07:18:00,,0826.8,5.00,0.00,22.1,20.6,00.0,31.0,23.9,12.1,0000.0,0008.48,0003.00,0001.99
2022-11-07 07:19:00,,0826.8,4.99,0.00,22.1,20.6,00.0,31.0,24.0,12.1,0000.0,0008.72,0003.02,0001.99
2022-11-07 07:20:00,,0826.8,4.99,0.00,22.1,20.6,00.0,31.0,23.9,12.1,0000.0,0008.29,0003.02,0001.98
2022-11-07 07:21:00,,0826.8,5.00,0.00,22.1,20.6,00.0,31.0,23.9,12.1,0000.0,0008.09,0003.09,0001.99
2022-11-07 07:22:00,,0826.8,5.01,0.00,22.1,20.6,00.0,31.0,23.9,12.1,0000.0,0008.00,0003.11,0002.00
2022-11-07 07:23:00,,0826.8,5.01,0.00,22.1,20.5,00.0,31.0,23.9,12.1,0000.0,0008.18,0003.09,0002.01
2022-11-07 07:24:00,,0826.7,4.99,0.00,22.1,20.5,00.0,31.0,23.9,12.1,0000.0,0008.34,0003.15,0002.01
2022-11-07 07:25:00,,0826.7,4.99,0.00,22.0,20.5,00.0,30.9,23.9,12.2,0000.0,0008.28,0003.15,0002.00
2022-11-07 07:26:00,,0826.7,5.00,0.00,22.0,20.5,00.0,30.9,23.9,12.2,0000.0,0008.35,0003.10,0001.99
2022-11-07 07:27:00,,0826.7,5.00,0.00,22.0,20.5,00.0,30.9,23.8,12.2,0000.0,0008.04,0003.08,0001.97
2022-11-07 07:28:00,,0826.7,5.01,0.00,22.0,20.5,00.0,30.9,23.8,12.2,0000.0,0007.97,0003.08,0001.98
2022-11-07 07:29:00,,0826.7,5.00,0.00,22.0,20.5,00.0,30.9,23.9,12.2,0000.0,0007.77,0003.01,0001.97
2022-11-07 07:30:00,,0826.7,5.00,0.00,22.0,20.5,00.0,30.9,23.9,12.3,0000.0,0007.46,0002.97,0001.97
2022-11-07 07:31:00,,0826.7,5.01,0.00,22.0,20.5,00.0,30.9,23.8,12.3,0000.0,0007.50,0002.97,0001.96
2022-11-07 07:32:00,,0826.7,5.00,0.00,22.0,20.5,00.0,30.9,23.8,12.4,0000.0,0007.43,0002.94,0001.96
2022-11-07 07:33:00,,0826.7,5.00,0.00,22.0,20.5,00.0,30.9,23.8,12.3,0000.0,0007.34,0002.93,0001.95
2022-11-07 07:34:00,,0826.7,4.99,0.00,22.0,20.5,00.0,30.8,23.8,12.4,0000.0,0007.11,0002.93,0001.96
2022-11-07 07:35:00,,0826.7,5.01,0.00,22.0,20.9,00.0,30.8,24.0,12.3,0000.0,0006.78,0002.85,0001.97
2022-11-07 07:36:00,,0826.7,5.01,0.00,22.1,21.7,00.0,30.8,24.2,12.3,0000.0,0007.46,0002.85,0001.99
2022-11-07 07:37:00,,0826.7,5.00,0.00,22.2,22.1,00.0,30.8,24.3,12.3,0000.0,0007.24,0002.92,0002.00
2022-11-07 07:38:00,,0826.6,5.00,0.00,22.2,21.8,00.0,30.9,24.3,12.2,0000.0,0007.07,0002.91,0002.00
2022-11-07 07:39:00,,0826.6,4.99,0.00,22.2,21.6,00.0,30.9,24.3,12.2,0000.0,0007.06,0002.90,0001.99
2022-11-07 07:40:00,,0826.6,5.01,0.00,22.2,21.4,00.0,30.9,24.2,12.1,0000.0,0007.05,0002.90,0001.99
2022-11-07 07:41:00,,0826.5,5.01,0.00,22.2,21.3,00.0,31.0,24.2,12.0,0000.0,0007.36,0002.93,0002.00
2022-11-07 07:42:00,,0826.5,5.00,0.00,22.2,21.2,00.0,31.0,24.2,12.1,0000.0,0007.51,0002.98,0002.01
2022-11-07 07:43:00,,0826.5,5.00,0.00,22.2,21.1,00.0,31.0,24.2,12.1,0000.0,0007.59,0003.00,0002.01
2022-11-07 07:44:00,,0826.5,5.00,0.00,22.2,21.1,00.0,31.0,24.2,12.2,0000.0,0007.61,0002.98,0002.02
2022-11-07 07:45:00,,0826.5,4.99,0.00,22.2,21.0,00.0,31.0,24.2,12.2,0000.0,0008.15,0003.01,0002.03
2022-11-07 07:46:00,,0826.5,5.01,0.00,22.2,21.0,00.0,31.0,24.2,12.2,0000.0,0008.96,0003.05,0002.02
2022-11-07 07:47:00,,0826.5,5.00,0.00,22.2,20.9,00.0,31.0,24.1,12.2,0000.0,0008.99,0003.03,0002.01
2022-11-07 07:48:00,,0826.5,5.00,0.00,22.2,20.9,00.0,31.0,24.1,12.2,0000.0,0008.52,0003.00,0002.01
2022-11-07 07:49:00,,0826.5,5.00,0.00,22.2,20.9,00.0,31.0,24.1,12.2,0000.0,0008.42,0002.99,0002.02
2022-11-07 07:50:00,,0826.5,5.00,0.00,22.2,20.9,00.0,31.0,24.1,12.1,0000.0,0008.35,0002.96,0002.02
2022-11-07 07:51:00,,0826.6,5.00,0.00,22.2,20.8,00.0,31.0,24.1,12.2,0000.0,0008.36,0002.98,0002.01
2022-11-07 07:52:00,,0826.5,5.00,0.00,22.2,20.8,00.0,31.0,24.0,12.2,0000.0,0008.75,0002.99,0002.01
2022-11-07 07:53:00,,0826.5,5.00,0.00,22.2,20.8,00.0,31.0,24.0,12.2,0000.0,0008.60,0002.97,0002.02
2022-11-07 07:54:00,,0826.5,5.00,0.00,22.2,20.8,00.0,31.0,24.0,12.2,0000.0,0008.69,0002.96,0002.03
2022-11-07 07:55:00,,0826.5,5.00,0.00,22.2,20.8,00.0,31.0,24.0,12.2,0000.0,0008.63,0002.95,0002.02
2022-11-07 07:56:00,,0826.5,4.99,0.00,22.1,20.7,00.0,31.0,24.0,12.2,0000.0,0008.33,0002.90,0002.02
2022-11-07 07:57:00,,0826.5,5.00,0.00,22.1,20.7,00.0,31.0,24.0,12.2,0000.0,0007.67,0002.92,0002.04
2022-11-07 07:58:00,,0826.5,5.01,0.00,22.1,20.7,00.0,31.0,24.0,12.3,0000.0,0007.14,0003.01,0002.06
2022-11-07 07:59:00,,0826.5,5.00,0.00,22.1,20.7,00.0,31.0,24.0,12.2,0000.0,0006.99,0003.01,0002.09
